Regional Weather Roundup
Issued by NWS

Home | Current Version | Previous Version | Text Only | Print | Product List | Glossary On
Versions: 1 2 3 4 5 6 7 8 9 10 11 12 13 14 15 16 17 18 19 20 21 22 23 24 25 26 27 28 29 30 31 32 33 34 35 36 37 38 39 40 41 42 43 44 45 46 47
000
ASUS45 KTFX 041810
RWRMT
MONTANA REGIONAL WEATHER ROUNDUP
NATIONAL WEATHER SERVICE GREAT FALLS MT
1200 PM MDT TUE AUG 04 2015

NOTE: "FAIR" INDICATES FEW OR NO CLOUDS BELOW 12000 FEET WITH NO
SIGNIFICANT WEATHER AND/OR OBSTRUCTIONS TO VISIBILITY.

MTZ001>007-043-041900-
WEST OF THE DIVIDE

CITY           SKY/WX    TMP DP  RH WIND       PRES   REMARKS
KALISPELL      CLOUDY    73  53  49 SE3       29.95R
MISSOULA       SUNNY     78  41  26 CALM      29.97F
BUTTE          MOSUNNY   75  41  29 VRB7G18   30.08S
MULLAN PASS    PTSUNNY   63  42  46 VRB3      30.12S
DEER LODGE       N/A     77  41  27 CALM      30.06F
EUREKA           N/A     82  46  28 CALM      29.90F
HAMILTON         N/A     81  41  24 E1        29.99S
LIBBY            N/A     77  52  41 CALM      29.92S
$$

MTZ008-052>055-041900-
SOUTHWEST MONTANA

CITY           SKY/WX    TMP DP  RH WIND       PRES   REMARKS
BOZEMAN        PTSUNNY   77  49  37 NE5       30.03S
DILLON         MOSUNNY   77  52  41 SW14      30.06F
W YELLOWSTONE  MOSUNNY   66  50  55 SW17G23   30.20F
$$

MTZ009-010-012-014-046-048-049-054-041900-
EAST SLOPES AND CENTRAL MONTANA

CITY           SKY/WX    TMP DP  RH WIND       PRES   REMARKS
CUT BANK       CLOUDY    77  45  32 W9        29.95S
GREAT FALLS    CLOUDY    80  41  24 SW12      29.94R
MALMSTROM AFB  CLOUDY    79  42  27 SW10      29.94R
HELENA         PTSUNNY   83  43  24 MISG      29.97S
$$

MTZ011-013-016-021-045-047-050-051-041900-
NORTH CENTRAL MONTANA

CITY           SKY/WX    TMP DP  RH WIND       PRES   REMARKS
HAVRE          PTSUNNY   81  53  37 NW10      29.85S
LEWISTOWN      LGT RAIN  68  56  65 W16       30.02R
CHINOOK          N/A     81  54  39 W8        29.84F
FORT BENTON      N/A     79  50  36 SE3       29.93R
$$

MTZ017>020-022>027-061-062-041900-
NORTHEAST MONTANA

CITY           SKY/WX    TMP DP  RH WIND       PRES   REMARKS
GLASGOW        SUNNY     85  56  37 SE17      29.86S
JORDAN           N/A     87  54  32 SE16      29.86S
SIDNEY         SUNNY    N/A N/A N/A SE14      29.90F
WOLF POINT     SUNNY     87  57  35 SE10G17   29.88F
MALTA            N/A     86  56  35 SE1       29.81S
POPLAR           N/A     84  55  37 SE14G22   29.89F
$$

MTZ028>42-056>058-041900-
SOUTHCENTRAL AND SOUTHEAST MONTANA

CITY           SKY/WX    TMP DP  RH WIND       PRES   REMARKS
BAKER          SUNNY     85  54  34 SE20G30   29.94F
BILLINGS       CLOUDY    74  54  49 SW14      30.00R
LIVINGSTON     CLOUDY    76  50  40 SE9       30.04R
MILES CITY     MOSUNNY   88  57  34 SE13G23   29.86F
FORSYTH          N/A     84  57  39 SE6       29.88R
LAUREL           N/A     66  57  72 S9        30.00R
$$

REGIONAL REPORTS...DAKOTAS

CITY           SKY/WX    TMP DP  RH WIND       PRES   REMARKS
WILLISTON      SUNNY     84  50  30 S17       29.93F
MINOT          SUNNY     79  49  34 E8        29.98F
DICKINSON      SUNNY     80  57  45 SE15G22   29.96F
CROSBY         FAIR      81  50  34 SE16      29.97F
BISMARCK       SUNNY     81  55  40 SE9G16    29.98F
GRAND FORKS    MOSUNNY   73  53  49 N6        30.02F
FARGO          SUNNY     78  47  33 NE9       30.00F
BUFFALO SD       N/A     83  55  38 SE23G29   29.89F
RAPID CITY     PTSUNNY   76  64  66 S13       29.96F
$$

REGIONAL REPORTS...WYOMING/IDAHO/WASHINGTON

CITY           SKY/WX    TMP DP  RH WIND       PRES   REMARKS
GILLETTE       MOSUNNY   79  55  43 S6        29.98S
SHERIDAN       CLOUDY    76  52  43 NW14      29.98R
BUFFALO WY     PTSUNNY   77  52  41 N15G26    30.02S
CODY           CLOUDY    70  50  49 NW10      30.10R
YELLOWSTONE LA   N/A     59  50  72 VRB6      30.29F
IDAHO FALLS    SUNNY     75  51  43 VRB5      30.13F
SALMON         MOSUNNY   79  48  34 NW3       29.99F
BOISE          SUNNY     81  50  33 CALM      30.00F
SPOKANE        MOSUNNY   77  45  32 S12G20    29.93R
$$

REGIONAL REPORTS...ALBERTA

CITY           SKY/WX    TMP DP  RH WIND       PRES   REMARKS
EDMONTON       CLOUDY    61  54  77 W9        29.89R
CALGARY        MOSUNNY   68  50  52 N12G18    29.94S
LETHBRIDGE     PTSUNNY   73  52  46 NW15      29.91S
MEDICINE HAT   CLOUDY    79  54  41 NW15      29.84R
WATERTON GATE    N/A     79  45  29 SW3         N/A
CARDSTON         N/A     73  50  43 N12G21      N/A
MILK RIVER       N/A     81  48  32 NW17G24     N/A
ONEFOUR          N/A     73  54  49 NW14        N/A
$$

REGIONAL REPORTS...SASKATCHEWAN

CITY           SKY/WX    TMP DP  RH WIND       PRES   REMARKS
SWIFT CURRENT  MOSUNNY   81  59  47 SE20G28   29.85S
REGINA         CLOUDY    79  54  41 SE16G22   29.95S
SASKATOON      CLOUDY    75  55  50 SE16G24   29.93F
CYPRESS HILLS    N/A     70  52  52 SW7         N/A
VAL MARIE        N/A     82  54  36 S14         N/A
ROCKGLEN         N/A     79  55  44 SE17G24     N/A
$$


USA.gov is the U.S. government's official web portal to all federal, state and local government web resources and services.